Погода в Удском

Россия / Хабаровский край     54°30′28″N   134°24′31″E
темп.,
°C
ветер,
м/с
пор.,
м/с
влажн.,
%
обл.,
%
осадки,
мм/ч
давл.,
гПа
погр.,
м
21 января, чт
чт2101:00−26зюз3696100 0.0 1016190
04:00−25юз3697100 0.1 1015236
07:00−24юз3697100 0.2 1015268
10:00−23зюз3896100 0.4 1016398
13:00−21зюз4992100 0.2 1017515
16:00−21зюз41091100 0.3 1017540
19:00−23зюз41193100 0.0 1020456
22:00−25юз41194100 0.1 1022422
22 января, пт
пт2201:00−26юз41094100 0.0 1023388
04:00−28юз399481 0.1 1024303
07:00−30юз389542 0.0 1024231
10:00−30юз499335 0.0 1025361
13:00−27зюз5108541 0.0 1024520
16:00−26зюз5128128 0.0 1023646
19:00−29юз412880 0.0 1026424
22:00−30зюз411890 0.0 1027338
23 января, сб
сб2301:00−32юз412890 0.0 1027360
04:00−33юз412880 0.0 1027401
07:00−33юз412870 0.0 1027396
10:00−33юз513840 0.0 1027458
13:00−29зюз512770 0.0 1025525
16:00−27зюз49799 0.0 1024461
19:00−29юз359068 0.0 1025123
22:00−27юз259283 0.0 1025138
24 января, вс
вс2401:00−27зюз2496100 0.0 1025120
04:00−28зюз2296100 0.1 102661
07:00−29зюз239591 0.0 102854
10:00−29зюз379475 0.0 1030225
13:00−24зюз388319 0.0 1030441
16:00−23зюз388310 0.0 1031467
19:00−28юз23920 0.0 103556
22:00−29юз23930 0.0 103757
25 января, пн
пн2501:00−31юз34920 0.0 103878
04:00−32юз34920 0.0 104091
07:00−33юз23940 0.0 104167
10:00−33юз34910 0.0 1042136
13:00−28зюз35820 0.0 1040292
16:00−26зюз24840 0.0 1040241
19:00−30юз22900 0.0 104220
22:00−32с01880 0.0 104119